Location: Santa Cristina
(46.5667°N, 11.7167°E)
Time: 06:00:49
(UTC+00:00)

Cosmos 1943 Rocket - Pass Details

Date: 21 April 2021
Orbit: 812 x 844 km, 71.0° (Epoch: 05 May)

Event Time Altitude Azimuth Distance (km) Brightness Sun altitude
Exits shadow 03:10:45 14° 233° (SW) 2,179 3.7 -10.9°
Maximum altitude 03:15:23 46° 304° (WNW) 1,114 2.7 -10.2°
Drops below altitude 10° 03:20:49 10° 17° (NNE) 2,462 5.3 -9.4°
Sets 03:23:23 0° 24° (NNE) 3,396 6.3 -9.0°
